�N����,����,����,����,����,�C��,���x,�~����,�S�V����,�ő�u�ԕ���,,,,,
,,,,,,,,,����,����,����,�N��,,
yyyy/mm/dd,hh:mm:ss,(16),16����,m/s,��,%,mm,KW/�u,(16),16����,m/s,Time,,
2018/8/1,1:00:00,9,��쐼,1.7,22.4,91,0,0,9,��쐼,4.9,13,,
2018/8/1,2:00:00,9,��쐼,3,23.1,87.6,0,0,9,��쐼,6.6,46,,
2018/8/1,3:00:00,7,��쓌,1,20.7,90,0,0,8,��,4.3,6,,
2018/8/1,4:00:00,11,���쐼,2.8,22.7,87.2,0,0,10,�쐼,5.8,34,,
2018/8/1,5:00:00,12,��,1.1,19.8,96.9,0,0.01,2,�k��,3.5,6,,
2018/8/1,6:00:00,3,���k��,0.8,20.3,93.3,0,0.06,2,�k��,3.4,26,,
2018/8/1,7:00:00,11,���쐼,0.9,26,79.2,0,0.23,3,���k��,2.3,22,,
2018/8/1,8:00:00,11,���쐼,3.5,28.9,65.5,0,0.39,10,�쐼,6.4,58,,
2018/8/1,9:00:00,5,���쓌,0.5,27.5,78.9,0,0.54,10,�쐼,5.9,19,,
2018/8/1,10:00:00,12,��,3.5,29.6,66.4,0,0.7,11,���쐼,7.1,20,,
2018/8/1,11:00:00,10,�쐼,1.5,29.2,61.3,0,0.71,11,���쐼,7.2,3,,
2018/8/1,12:00:00,4,��,3.2,30.5,69.5,0,1.02,4,��,6,29,,
2018/8/1,13:00:00,7,��쓌,2,30.1,69.7,0,0.96,4,��,4.3,8,,
2018/8/1,14:00:00,7,��쓌,1.9,30.8,60.8,0,0.87,7,��쓌,3.1,58,,
2018/8/1,15:00:00,6,�쓌,1.2,31,62.4,0,0.72,7,��쓌,4.1,40,,
2018/8/1,16:00:00,16,�k,2.8,32,37.5,0,0.61,15,�k�k��,7.4,59,,
2018/8/1,17:00:00,15,�k�k��,3,28.8,42.8,0,0.29,16,�k,7.8,3,,
2018/8/1,18:00:00,14,�k��,2.9,27.4,45.9,0,0.09,15,�k�k��,6.1,38,,
2018/8/1,19:00:00,14,�k��,3.5,26.1,57.2,0,0.02,14,�k��,6.6,57,,
2018/8/1,20:00:00,6,�쓌,2,23.1,63.8,0,0,14,�k��,7.4,5,,
2018/8/1,21:00:00,1,�k�k��,0.9,18.3,89.3,0,0,4,��,4.9,44,,
2018/8/1,22:00:00,16,�É�,0,17.8,92.8,0,0,10,�쐼,1.2,42,,
2018/8/1,23:00:00,13,���k��,1,17.4,97.2,0,0,13,���k��,1.8,2,,
2018/8/1,0:00:00,16,�É�,0.1,17.4,96.8,0,0,12,��,1.6,10,,
2018/8/2,1:00:00,16,�É�,0.2,17.3,98.1,0,0,14,�k��,1.6,23,,
2018/8/2,2:00:00,13,���k��,1.6,16.5,99.3,0,0,13,���k��,1.9,50,,
2018/8/2,3:00:00,13,���k��,1.3,16.8,99.2,0,0,13,���k��,2.5,28,,
2018/8/2,4:00:00,13,���k��,1.5,17,98.5,0,0,14,�k��,2.8,51,,
2018/8/2,5:00:00,14,�k��,2.1,17.5,99.5,0,0.01,14,�k��,2.9,58,,
2018/8/2,6:00:00,13,���k��,1.6,19.3,94.6,0,0.16,14,�k��,3,31,,
2018/8/2,7:00:00,12,��,1.9,20.6,91.1,0,0.18,14,�k��,3.5,30,,
2018/8/2,8:00:00,14,�k��,1.5,24.1,72.5,0,0.43,15,�k�k��,2.8,44,,
2018/8/2,9:00:00,10,�쐼,0.7,25.3,62.1,0,0.69,14,�k��,3.1,21,,
2018/8/2,10:00:00,6,�쓌,3.1,26.2,67.2,0,0.91,6,�쓌,4.7,53,,
2018/8/2,11:00:00,7,��쓌,3.2,25.3,69.5,0,0.86,6,�쓌,4.9,12,,
2018/8/2,12:00:00,7,��쓌,3.2,26.3,62.9,0,0.96,9,��쐼,5,45,,
2018/8/2,13:00:00,8,��,3.9,25.7,64.2,0,0.99,7,��쓌,7.3,32,,
2018/8/2,14:00:00,9,��쐼,4.4,24.5,66.2,0,0.83,9,��쐼,8.1,36,,
2018/8/2,15:00:00,9,��쐼,4.5,23.3,70,0,0.67,8,��,8.3,56,,
2018/8/2,16:00:00,9,��쐼,3.3,23.4,70.3,0,0.53,10,�쐼,7.5,49,,
2018/8/2,17:00:00,8,��,3.1,22.8,72.8,0,0.31,9,��쐼,7.5,41,,
2018/8/2,18:00:00,8,��,3.5,21.3,75.2,0,0.18,9,��쐼,7.6,10,,
2018/8/2,19:00:00,9,��쐼,2,19.7,86.8,0,0.03,9,��쐼,6.2,19,,
2018/8/2,20:00:00,16,�É�,0.1,18.2,91.7,0,0,8,��,2.8,0,,
2018/8/2,21:00:00,1,�k�k��,1,17.1,95.8,0,0,7,��쓌,2.7,18,,
2018/8/2,22:00:00,1,�k�k��,0.6,17.2,98.2,0,0,3,���k��,2.2,5,,
2018/8/2,23:00:00,1,�k�k��,1.2,16.7,97.2,0,0,16,�k,2.6,37,,
2018/8/2,0:00:00,15,�k�k��,0.4,15.4,98.7,0,0,1,�k�k��,2,25,,
2018/8/3,1:00:00,13,���k��,0.3,14.1,99.1,0,0,2,�k��,2,4,,
2018/8/3,2:00:00,16,�k,1,13.6,98.9,0,0,13,���k��,2,22,,
2018/8/3,3:00:00,12,��,1.5,13.2,99.9,0,0,12,��,2.3,51,,
2018/8/3,4:00:00,12,��,1.7,13.3,100,0,0,12,��,2.5,20,,
2018/8/3,5:00:00,13,���k��,1.9,13.2,100,0,0.02,13,���k��,2.6,59,,
2018/8/3,6:00:00,12,��,1.9,17.3,99.6,0,0.18,13,���k��,2.7,0,,
2018/8/3,7:00:00,13,���k��,1.7,21,84.8,0,0.37,12,��,2.5,4,,
2018/8/3,8:00:00,12,��,1.2,23.7,72.6,0,0.56,12,��,2.4,50,,
2018/8/3,9:00:00,6,�쓌,2.4,23.7,73.3,0,0.71,6,�쓌,3.4,49,,
2018/8/3,10:00:00,7,��쓌,2.7,23.5,70.5,0,0.86,6,�쓌,3.9,26,,
2018/8/3,11:00:00,8,��,3.2,24,69.6,0,0.97,7,��쓌,4.6,37,,
2018/8/3,12:00:00,6,�쓌,3,24.3,67.5,0,0.99,7,��쓌,5,53,,
2018/8/3,13:00:00,8,��,2.5,24.4,69.2,0,0.98,6,�쓌,4.7,6,,
2018/8/3,14:00:00,7,��쓌,2.8,24.9,59.8,0,0.76,7,��쓌,4.4,28,,
2018/8/3,15:00:00,8,��,2,25.8,64.2,0,0.65,6,�쓌,3.5,0,,
2018/8/3,16:00:00,7,��쓌,1.6,25.2,65.7,0,0.47,8,��,3.7,6,,
2018/8/3,17:00:00,10,�쐼,1.9,24.7,64.7,0,0.35,10,�쐼,3.1,59,,
2018/8/3,18:00:00,12,��,1.3,22.1,85.2,0,0.13,10,�쐼,3,2,,
2018/8/3,19:00:00,15,�k�k��,1.4,19.7,88.4,0,0.02,16,�k,3.5,45,,
2018/8/3,20:00:00,2,�k��,2.5,19.5,84.1,0,0,3,���k��,8.9,12,,
2018/8/3,21:00:00,3,���k��,2.2,19.7,82.8,0,0,3,���k��,4.7,40,,
2018/8/3,22:00:00,3,���k��,1.4,18.6,86.8,0,0,3,���k��,4.3,7,,
2018/8/3,23:00:00,12,��,0.8,17.5,96.5,0,0,4,��,2.2,10,,
2018/8/3,0:00:00,10,�쐼,0.4,17.7,94.6,0,0,13,���k��,1.7,36,,
2018/8/4,1:00:00,6,�쓌,0.4,17.5,93.2,0,0,6,�쓌,1.1,54,,
2018/8/4,2:00:00,5,���쓌,0.3,17.1,92.9,0,0,6,�쓌,1.7,41,,
2018/8/4,3:00:00,8,��,0.4,16.7,92.4,0,0,8,��,1.4,0,,
2018/8/4,4:00:00,7,��쓌,1,16.6,90.4,0,0,7,��쓌,1.6,57,,
2018/8/4,5:00:00,16,�É�,0.2,16.2,91.1,0,0.01,5,���쓌,1.8,33,,
2018/8/4,6:00:00,10,�쐼,0.4,16.7,85.8,0,0.06,8,��,1.4,6,,
2018/8/4,7:00:00,9,��쐼,0.6,17.2,82.4,0,0.12,11,���쐼,1.2,2,,
2018/8/4,8:00:00,6,�쓌,2.1,17.6,80.4,0,0.24,5,���쓌,2.8,57,,
2018/8/4,9:00:00,6,�쓌,1.8,17.8,77.9,0,0.33,6,�쓌,3.4,47,,
2018/8/4,10:00:00,6,�쓌,1.4,19.2,82.7,0,0.54,8,��,2.9,43,,
2018/8/4,11:00:00,5,���쓌,3,18.7,75.1,0,0.66,6,�쓌,4.6,40,,
2018/8/4,12:00:00,7,��쓌,3,19,76.7,0,0.52,5,���쓌,5,25,,
2018/8/4,13:00:00,6,�쓌,3.3,18.9,70.2,0,0.87,6,�쓌,6,39,,
2018/8/4,14:00:00,7,��쓌,3.1,19.3,75.1,0,0.56,5,���쓌,5.9,3,,
2018/8/4,15:00:00,7,��쓌,3.7,18.7,71.7,0,0.59,7,��쓌,6.2,56,,
2018/8/4,16:00:00,8,��,2.3,17.3,79.8,0,0.31,8,��,5.8,22,,
2018/8/4,17:00:00,8,��,1.7,16.8,81.1,0,0.12,8,��,4.7,15,,
2018/8/4,18:00:00,7,��쓌,1.3,16.6,86.1,0,0.06,8,��,3.6,22,,
2018/8/4,19:00:00,6,�쓌,1.4,15.9,90,0,0.01,7,��쓌,3.5,11,,
2018/8/4,20:00:00,6,�쓌,0.8,15.6,93,0,0,6,�쓌,2.5,1,,
2018/8/4,21:00:00,6,�쓌,0.3,15.7,92.9,0,0,6,�쓌,1.3,52,,
2018/8/4,22:00:00,16,�É�,0,15,97.2,0,0,1,�k�k��,1.1,22,,
2018/8/4,23:00:00,16,�É�,0,15.2,98.3,0,0,13,���k��,1.1,7,,
2018/8/4,0:00:00,12,��,0.3,14.9,98.7,0,0,12,��,1.1,23,,
2018/8/5,1:00:00,14,�k��,1.2,15,98.8,0,0,13,���k��,1.7,43,,
2018/8/5,2:00:00,16,�É�,0,14.9,99.1,0.5,0,13,���k��,1.8,1,,
2018/8/5,3:00:00,11,���쐼,1.4,14.7,99.5,0.5,0,10,�쐼,3.5,58,,
2018/8/5,4:00:00,11,���쐼,0.7,13.6,97.8,1,0,11,���쐼,4.5,12,,
2018/8/5,5:00:00,14,�k��,0.6,13.7,97.4,0.5,0.01,12,��,1.9,42,,
2018/8/5,6:00:00,14,�k��,0.5,13.9,96.7,0.5,0.03,13,���k��,1.6,39,,
2018/8/5,7:00:00,13,���k��,1.1,14.3,96.8,0,0.05,14,�k��,2.5,26,,
2018/8/5,8:00:00,14,�k��,2.2,14.9,95.1,0,0.1,14,�k��,3.1,52,,
2018/8/5,9:00:00,14,�k��,2,15.3,93,0,0.14,14,�k��,3.5,28,,
2018/8/5,10:00:00,14,�k��,1.3,16.7,88.3,0,0.3,14,�k��,3.1,1,,
2018/8/5,11:00:00,15,�k�k��,1.6,17.3,85.9,0,0.39,15,�k�k��,3.4,35,,
2018/8/5,12:00:00,4,��,2.9,17.3,90.9,0,0.27,4,��,4.1,51,,
2018/8/5,13:00:00,4,��,2.8,17.9,88.9,0,0.34,4,��,4.5,38,,
2018/8/5,14:00:00,4,��,3.5,20.1,81.4,0,0.66,5,���쓌,5.7,43,,
2018/8/5,15:00:00,5,���쓌,3.4,19.3,78.1,0,0.76,4,��,5.6,18,,
2018/8/5,16:00:00,5,���쓌,2.7,19.2,78.6,0,0.59,5,���쓌,5,29,,
2018/8/5,17:00:00,4,��,2.7,18.4,82.7,0,0.4,4,��,4.6,4,,
2018/8/5,18:00:00,4,��,2.2,16.9,89.8,0,0.19,4,��,3.7,2,,
2018/8/5,19:00:00,2,�k��,1.6,14.4,94.8,0,0.03,4,��,2.7,1,,
2018/8/5,20:00:00,3,���k��,2.6,14.5,97.6,0,0,4,��,3.7,52,,
2018/8/5,21:00:00,1,�k�k��,1.2,15.4,94,0,0,3,���k��,2.9,5,,
2018/8/5,22:00:00,14,�k��,1.1,14.2,98.2,0,0,13,���k��,1.8,42,,
2018/8/5,23:00:00,15,�k�k��,0.8,14.6,95.4,0,0,14,�k��,2.9,24,,
2018/8/5,0:00:00,13,���k��,0.8,14.4,97.7,0,0,14,�k��,2.2,13,,
2018/8/6,1:00:00,15,�k�k��,1.6,13.6,94.6,0,0,3,���k��,2.7,47,,
2018/8/6,2:00:00,14,�k��,1.3,13.1,98.1,0,0,14,�k��,2.6,36,,
2018/8/6,3:00:00,14,�k��,1.3,12.6,99.1,0,0,13,���k��,1.7,29,,
2018/8/6,4:00:00,14,�k��,1.2,10.5,99.7,0,0,14,�k��,1.7,40,,
2018/8/6,5:00:00,14,�k��,1.2,13,99.9,0,0.01,15,�k�k��,2.4,43,,
2018/8/6,6:00:00,1,�k�k��,2.2,14.6,94.9,0,0.07,2,�k��,3.4,58,,
2018/8/6,7:00:00,3,���k��,2.6,15,89.9,0,0.09,3,���k��,3.8,59,,
2018/8/6,8:00:00,3,���k��,3.5,14.6,86.3,0,0.11,3,���k��,5.3,53,,
2018/8/6,9:00:00,2,�k��,3.2,14.6,84,0,0.21,3,���k��,5.2,27,,
2018/8/6,10:00:00,3,���k��,2.8,15.4,83.8,0,0.31,2,�k��,4.9,24,,
2018/8/6,11:00:00,4,��,3.3,16.6,82.9,0,0.33,4,��,5.4,28,,
2018/8/6,12:00:00,3,���k��,3.9,16.8,81.4,0,0.55,4,��,6.5,38,,
2018/8/6,13:00:00,4,��,4,18.1,74.1,0,1.02,4,��,7,35,,
2018/8/6,14:00:00,4,��,3.5,18.1,72.5,0,0.9,4,��,6.3,46,,
2018/8/6,15:00:00,5,���쓌,4.1,17.5,76.6,0,0.75,4,��,6.4,16,,
2018/8/6,16:00:00,5,���쓌,3.3,17.2,75.8,0,0.59,5,���쓌,5.2,22,,
2018/8/6,17:00:00,5,���쓌,3,16.5,80.3,0,0.4,5,���쓌,4.9,5,,
2018/8/6,18:00:00,4,��,1.6,15.6,88.2,0,0.19,5,���쓌,4.1,4,,
2018/8/6,19:00:00,12,��,1.7,10.9,97.7,0,0.02,12,��,2.1,54,,
2018/8/6,20:00:00,16,�k,0.6,10.5,99.2,0,0,12,��,1.6,0,,
2018/8/6,21:00:00,14,�k��,1.2,10.2,99.6,0,0,15,�k�k��,2,56,,
2018/8/6,22:00:00,13,���k��,1,12.6,99.8,0,0,12,��,1.8,31,,
2018/8/6,23:00:00,2,�k��,0.3,13.3,97.5,0,0,14,�k��,2.5,31,,
2018/8/6,0:00:00,16,�k,1.2,13.7,98.4,0,0,2,�k��,2.3,55,,
2018/8/7,1:00:00,1,�k�k��,2.1,13,93.9,0,0,1,�k�k��,3.3,53,,
2018/8/7,2:00:00,1,�k�k��,1.1,12.1,93.3,0,0,1,�k�k��,2.7,28,,
2018/8/7,3:00:00,15,�k�k��,0.7,10.4,98.2,0,0,2,�k��,2.5,21,,
2018/8/7,4:00:00,15,�k�k��,0.7,10.4,99.8,0,0,12,��,1.9,24,,
2018/8/7,5:00:00,14,�k��,1.6,10.2,99.6,0,0.02,13,���k��,2.2,51,,
2018/8/7,6:00:00,13,���k��,1.3,12.2,95.5,0,0.17,13,���k��,1.9,44,,
2018/8/7,7:00:00,3,���k��,2.2,15.4,82.2,0,0.31,4,��,5,59,,
2018/8/7,8:00:00,4,��,3.6,15.6,75.4,0,0.65,4,��,6.1,51,,
2018/8/7,9:00:00,3,���k��,3.7,15.5,79.6,0,0.62,4,��,7.1,31,,
2018/8/7,10:00:00,4,��,3.4,17.4,74.9,0,0.81,4,��,5.5,51,,
2018/8/7,11:00:00,4,��,3.6,16.3,80.8,0,0.75,5,���쓌,6.3,30,,
2018/8/7,12:00:00,4,��,4,16.7,77,0,0.51,4,��,5.9,46,,
2018/8/7,13:00:00,4,��,4,16.8,78.9,0,0.56,5,���쓌,5.8,53,,
2018/8/7,14:00:00,4,��,3.5,17.4,77.5,0,0.6,4,��,5.2,59,,
2018/8/7,15:00:00,4,��,4.4,16.5,81.8,0,0.49,4,��,6.9,37,,
2018/8/7,16:00:00,4,��,3.7,16.3,85.4,0,0.36,4,��,6.2,31,,
2018/8/7,17:00:00,3,���k��,3.2,16,87.7,0,0.14,3,���k��,4.9,21,,
2018/8/7,18:00:00,3,���k��,2.5,15.9,86.6,0,0.22,3,���k��,6.2,31,,
2018/8/7,19:00:00,3,���k��,2,15.4,89.9,0,0.01,3,���k��,3.8,4,,
2018/8/7,20:00:00,2,�k��,2.3,15.2,89.6,0,0,2,�k��,3.6,54,,
2018/8/7,21:00:00,3,���k��,1.6,15,91.3,0,0,3,���k��,4.4,19,,
2018/8/7,22:00:00,2,�k��,1.7,14.9,91.1,0,0,2,�k��,3.9,6,,
2018/8/7,23:00:00,2,�k��,2.3,14.8,92.2,0,0,3,���k��,3.2,54,,
2018/8/7,0:00:00,1,�k�k��,1.9,14.6,92.1,0,0,1,�k�k��,2.7,57,,
2018/8/8,1:00:00,1,�k�k��,1.6,14.4,91.6,0,0,1,�k�k��,3.2,20,,
2018/8/8,2:00:00,1,�k�k��,1.4,14.1,91.9,0,0,2,�k��,3.2,27,,
2018/8/8,3:00:00,1,�k�k��,1.1,14.1,90.4,0,0,1,�k�k��,2.4,46,,
2018/8/8,4:00:00,16,�k,0.8,14.1,92.4,0,0,1,�k�k��,2,46,,
2018/8/8,5:00:00,14,�k��,1.4,14.1,91.1,0,0.01,14,�k��,2,59,,
2018/8/8,6:00:00,15,�k�k��,0.8,14.8,88.2,0,0.06,14,�k��,2,48,,
2018/8/8,7:00:00,2,�k��,1.6,15.8,85.8,0,0.16,1,�k�k��,3,22,,
2018/8/8,8:00:00,1,�k�k��,1.9,16.2,85.7,0,0.15,2,�k��,3.5,46,,
2018/8/8,9:00:00,2,�k��,2.3,17.7,79.8,0,0.28,3,���k��,4.5,47,,
2018/8/8,10:00:00,3,���k��,3.9,17.2,81.6,0,0.34,3,���k��,5.9,39,,
2018/8/8,11:00:00,3,���k��,3.9,16.7,83.9,0,0.37,3,���k��,6.1,28,,
2018/8/8,12:00:00,3,���k��,3.4,17.1,86.6,0,0.38,3,���k��,5.8,9,,
2018/8/8,13:00:00,3,���k��,3.5,17.5,87.2,0,0.37,3,���k��,5.1,51,,
2018/8/8,14:00:00,3,���k��,3.3,17.2,87.8,0,0.22,3,���k��,5.5,52,,
2018/8/8,15:00:00,3,���k��,4.1,17.4,88.1,0,0.23,3,���k��,7,57,,
2018/8/8,16:00:00,2,�k��,3.3,17.3,87.3,0,0.24,3,���k��,6.9,1,,
2018/8/8,17:00:00,3,���k��,3,16.4,94.1,0,0.16,3,���k��,6.3,35,,
2018/8/8,18:00:00,3,���k��,1.9,15.7,98,0,0.06,4,��,4.5,4,,
2018/8/8,19:00:00,2,�k��,1.2,15.5,98.9,0,0.01,3,���k��,4,13,,
2018/8/8,20:00:00,1,�k�k��,1.2,15.6,99.1,0,0,1,�k�k��,1.9,59,,
2018/8/8,21:00:00,16,�É�,0,15.7,99.4,0,0,1,�k�k��,1.7,1,,
2018/8/8,22:00:00,16,�k,0.8,15.9,99.3,0,0,15,�k�k��,2.3,44,,
2018/8/8,23:00:00,14,�k��,0.8,15.9,98.3,0,0,1,�k�k��,2.2,7,,
2018/8/8,0:00:00,14,�k��,0.3,16,97.6,0,0,16,�k,1.6,15,,
2018/8/9,1:00:00,15,�k�k��,0.3,16.1,96.9,0,0,16,�k,1.6,14,,
2018/8/9,2:00:00,16,�É�,0,15.9,99,0,0,6,�쓌,0.9,18,,
2018/8/9,3:00:00,15,�k�k��,0.4,15.9,99.6,1,0,14,�k��,1.3,16,,
2018/8/9,4:00:00,3,���k��,0.5,16,99.6,0,0,3,���k��,0.9,59,,
2018/8/9,5:00:00,16,�É�,0,16.1,99.8,0,0.01,4,��,1,28,,
2018/8/9,6:00:00,4,��,0.4,16.1,99.9,0,0.03,5,���쓌,1,21,,
2018/8/9,7:00:00,3,���k��,1.4,15.9,99.9,0.5,0.06,3,���k��,2.7,42,,
2018/8/9,8:00:00,4,��,1.5,16.6,99.8,0.5,0.13,3,���k��,2.5,42,,
2018/8/9,9:00:00,4,��,2,17.3,99.3,0,0.22,4,��,3.2,15,,
2018/8/9,10:00:00,4,��,2.8,17.8,95.6,0,0.3,4,��,3.8,53,,
2018/8/9,11:00:00,4,��,3,19.4,91.9,0,0.4,5,���쓌,4.7,52,,
2018/8/9,12:00:00,3,���k��,3.6,18.2,88.7,0,0.51,4,��,5.7,47,,
2018/8/9,13:00:00,4,��,3.3,18.3,91.5,0,0.34,4,��,5.2,31,,
2018/8/9,14:00:00,4,��,2.6,18.3,94.2,0,0.32,3,���k��,5.2,2,,
2018/8/9,15:00:00,3,���k��,2.3,18.3,95.6,0,0.23,4,��,4,28,,
2018/8/9,16:00:00,3,���k��,2.9,18.2,97.3,0,0.13,3,���k��,4.5,54,,
2018/8/9,17:00:00,3,���k��,2.5,17.5,98.2,0,0.1,3,���k��,4.9,23,,
2018/8/9,18:00:00,3,���k��,1.9,17,98.8,0,0.04,3,���k��,4.5,5,,
2018/8/9,19:00:00,1,�k�k��,1.5,16.9,99.2,0.5,0.01,3,���k��,2.7,26,,
2018/8/9,20:00:00,1,�k�k��,0.6,17,99.3,0,0,2,�k��,2.9,5,,
2018/8/9,21:00:00,16,�É�,0.2,17,99,0,0,1,�k�k��,2.1,16,,
2018/8/9,22:00:00,9,��쐼,0.9,16.9,99.2,1,0,9,��쐼,1.4,59,,
2018/8/9,23:00:00,2,�k��,2.5,16.3,99.5,2,0,3,���k��,3.8,44,,
2018/8/9,0:00:00,2,�k��,1.4,16.2,99.7,1,0,2,�k��,3.2,0,,
2018/8/10,1:00:00,12,��,0.7,16.4,99.8,0,0,2,�k��,1.5,0,,
2018/8/10,2:00:00,16,�É�,0.2,16.3,99.9,1,0,14,�k��,1.2,11,,
2018/8/10,3:00:00,4,��,1.1,16.1,100,4.5,0,5,���쓌,2.1,49,,
2018/8/10,4:00:00,14,�k��,0.4,16.2,100,2,0,2,�k��,1.8,29,,
2018/8/10,5:00:00,1,�k�k��,2,16.6,99.9,0,0,1,�k�k��,3,51,,
2018/8/10,6:00:00,16,�k,1.1,17.1,99.1,0,0.03,1,�k�k��,3.2,28,,
2018/8/10,7:00:00,15,�k�k��,1.9,17.6,99,0.5,0.06,14,�k��,4.2,52,,
2018/8/10,8:00:00,1,�k�k��,2.3,18.5,97.2,0.5,0.17,15,�k�k��,4.6,47,,
2018/8/10,9:00:00,13,���k��,1.4,19.5,96,0,0.2,14,�k��,3.6,36,,
2018/8/10,10:00:00,6,�쓌,1.4,20.7,85.8,0,0.48,13,���k��,3.9,17,,
2018/8/10,11:00:00,4,��,3.6,20.9,84.5,0,0.63,5,���쓌,5,54,,
2018/8/10,12:00:00,4,��,3.5,20.2,88.1,0,0.6,4,��,5.7,18,,
2018/8/10,13:00:00,3,���k��,3.1,19,87.7,0,0.32,3,���k��,6,49,,
2018/8/10,14:00:00,3,���k��,2.5,18.8,87.4,0,0.27,3,���k��,5.1,35,,
2018/8/10,15:00:00,3,���k��,2.2,18.9,89,0,0.19,2,�k��,4.7,30,,
2018/8/10,16:00:00,3,���k��,1.3,18.6,88.4,0,0.12,2,�k��,3.9,2,,
2018/8/10,17:00:00,5,���쓌,0.5,18.2,90.8,0,0.07,4,��,1.8,1,,
2018/8/10,18:00:00,12,��,0.3,17.7,95.7,0,0.03,12,��,1,0,,
2018/8/10,19:00:00,13,���k��,1.1,17.3,98.3,1.5,0,13,���k��,1.6,59,,
2018/8/10,20:00:00,16,�É�,0.2,17.2,99,1.5,0,13,���k��,2.1,29,,
2018/8/10,21:00:00,16,�É�,0,17.2,99.4,0.5,0,12,��,1.3,22,,
2018/8/10,22:00:00,3,���k��,1.2,16.9,99.4,0,0,2,�k��,2.1,59,,
2018/8/10,23:00:00,4,��,1.1,16.4,99.5,4.5,0,3,���k��,2.5,5,,
2018/8/10,0:00:00,4,��,1.8,16.1,99.6,1,0,4,��,2.6,59,,
2018/8/11,1:00:00,4,��,3.2,15.3,99.4,0.5,0,4,��,5.7,32,,
2018/8/11,2:00:00,3,���k��,3.1,15,99.6,1,0,3,���k��,5.1,53,,
2018/8/11,3:00:00,2,�k��,2.2,14.6,99.6,0.5,0,2,�k��,4.6,16,,
2018/8/11,4:00:00,3,���k��,2.7,14.4,99.7,0.5,0,2,�k��,4.3,59,,
2018/8/11,5:00:00,2,�k��,1.9,14.2,99.8,0,0,3,���k��,5,6,,
2018/8/11,6:00:00,3,���k��,3.1,14.2,99.8,0.5,0.02,3,���k��,4.7,54,,
2018/8/11,7:00:00,2,�k��,2.3,14.6,99.3,0,0.08,2,�k��,4.9,45,,
2018/8/11,8:00:00,3,���k��,2.2,14.9,98.9,0,0.15,3,���k��,4.6,45,,
2018/8/11,9:00:00,3,���k��,3.1,15.4,97.7,0,0.31,4,��,4.9,39,,
2018/8/11,10:00:00,4,��,2.5,17.8,91.2,0,0.58,3,���k��,4.8,3,,
2018/8/11,11:00:00,4,��,3.4,17.1,86.3,0,0.81,4,��,5.4,13,,
2018/8/11,12:00:00,4,��,3.6,16.4,88.5,0,0.49,5,���쓌,5.5,45,,
2018/8/11,13:00:00,4,��,3.7,16.7,88.8,0,0.37,4,��,5.2,41,,
2018/8/11,14:00:00,3,���k��,2.9,16.7,89.5,0,0.34,3,���k��,5.3,14,,
2018/8/11,15:00:00,4,��,3.2,16.8,90.5,0,0.3,5,���쓌,4.7,57,,
2018/8/11,16:00:00,4,��,2.6,16.8,91.1,0,0.27,4,��,4.4,9,,
2018/8/11,17:00:00,4,��,1.9,16.5,92.7,0,0.14,3,���k��,3.9,37,,
2018/8/11,18:00:00,3,���k��,1.6,15.9,95.4,0,0.05,3,���k��,3.7,36,,
2018/8/11,19:00:00,2,�k��,1.2,15.6,98.4,0,0.01,2,�k��,3,0,,
2018/8/11,20:00:00,4,��,1.4,15.6,98.7,0,0,3,���k��,2,54,,
2018/8/11,21:00:00,3,���k��,1,15.7,98.9,0,0,3,���k��,2.5,10,,
2018/8/11,22:00:00,2,�k��,0.7,15.7,99.3,0,0,2,�k��,1.9,28,,
2018/8/11,23:00:00,13,���k��,1.3,15.7,99.5,0,0,13,���k��,2.1,59,,
2018/8/11,0:00:00,14,�k��,0.7,15.6,99.6,0,0,13,���k��,1.9,0,,
2018/8/12,1:00:00,16,�É�,0.1,15.4,99.4,0,0,15,�k�k��,1.3,40,,
2018/8/12,2:00:00,12,��,0.5,15.5,99.5,0,0,12,��,0.7,0,,
2018/8/12,3:00:00,11,���쐼,0.8,15.6,99.6,0,0,12,��,1.6,47,,
2018/8/12,4:00:00,16,�É�,0.1,15.6,99.4,0,0,14,�k��,1.6,38,,
2018/8/12,5:00:00,16,�É�,0.2,15.8,99.3,0,0.01,7,��쓌,1.4,44,,
2018/8/12,6:00:00,10,�쐼,0.3,16.2,97.4,0,0.06,16,�k,1.1,12,,
2018/8/12,7:00:00,5,���쓌,0.5,16.6,97.2,0,0.13,8,��,1.5,34,,
2018/8/12,8:00:00,7,��쓌,0.6,18.3,92.7,0,0.27,8,��,2,56,,
2018/8/12,9:00:00,6,�쓌,1.1,18.6,88.2,0,0.5,5,���쓌,3.9,41,,
2018/8/12,10:00:00,4,��,1.9,19.9,83.1,0,0.69,4,��,4.1,39,,
2018/8/12,11:00:00,5,���쓌,3.4,20.9,82.4,0,0.72,5,���쓌,5,52,,
2018/8/12,12:00:00,5,���쓌,3.1,20.6,84.7,0,1,5,���쓌,4.9,59,,
2018/8/12,13:00:00,4,��,3.5,20.7,86.6,0,0.91,4,��,5.6,52,,
2018/8/12,14:00:00,3,���k��,3.7,20.3,89.2,0,0.6,4,��,5.9,23,,
2018/8/12,15:00:00,4,��,3.2,19,92.9,0,0.44,4,��,5.7,15,,
2018/8/12,16:00:00,6,�쓌,1.4,18.1,97.1,0,0.24,4,��,4.6,0,,
2018/8/12,17:00:00,3,���k��,1.5,18.3,97.2,0,0.09,5,���쓌,2.8,36,,
2018/8/12,18:00:00,4,��,1.4,18.1,98.4,0,0.04,4,��,2.7,5,,
2018/8/12,19:00:00,3,���k��,1,18,99.3,0,0,3,���k��,2.1,33,,
2018/8/12,20:00:00,3,���k��,2.5,17.8,99.6,0,0,3,���k��,3.9,55,,
2018/8/12,21:00:00,3,���k��,1.4,18,99.6,0,0,3,���k��,3.6,5,,
2018/8/12,22:00:00,3,���k��,1.8,17.9,99.6,0,0,2,�k��,3.5,15,,
2018/8/12,23:00:00,3,���k��,1.1,17.9,99.6,0,0,2,�k��,3.7,37,,
2018/8/12,0:00:00,2,�k��,1.6,17.8,99.7,0,0,1,�k�k��,2.8,32,,
2018/8/13,1:00:00,1,�k�k��,1.2,17.7,99.8,0,0,1,�k�k��,2.1,1,,
2018/8/13,2:00:00,16,�É�,0.2,17.6,99.9,0,0,1,�k�k��,2.1,6,,
2018/8/13,3:00:00,3,���k��,0.5,17.6,99.9,0,0,16,�k,1.3,11,,
2018/8/13,4:00:00,16,�É�,0.2,17.5,100,0,0,6,�쓌,1.2,48,,
2018/8/13,5:00:00,5,���쓌,1.3,17.2,100,0,0,5,���쓌,1.9,55,,
2018/8/13,6:00:00,4,��,0.4,17.6,100,0,0.04,5,���쓌,2,4,,
2018/8/13,7:00:00,7,��쓌,0.8,18,100,0,0.12,6,�쓌,2.1,49,,
2018/8/13,8:00:00,7,��쓌,1,18.1,99.3,0,0.15,8,��,2.7,42,,
2018/8/13,9:00:00,6,�쓌,1.8,18.3,97.9,0,0.17,5,���쓌,2.8,59,,
2018/8/13,10:00:00,7,��쓌,1.4,18.5,95.1,0,0.26,7,��쓌,2.6,39,,
2018/8/13,11:00:00,5,���쓌,2.2,19.8,90.6,0,0.39,5,���쓌,3,58,,
2018/8/13,12:00:00,7,��쓌,2.5,21,86.2,0,0.73,6,�쓌,4.1,32,,
2018/8/13,13:00:00,6,�쓌,2.4,20.9,84.9,0,0.89,6,�쓌,4.6,23,,
2018/8/13,14:00:00,5,���쓌,2.2,21.5,88.4,0,0.68,7,��쓌,4.4,3,,
2018/8/13,15:00:00,4,��,2.5,20.2,91.3,0,0.52,4,��,3.7,41,,
2018/8/13,16:00:00,4,��,1.8,19.6,95.1,0,0.28,5,���쓌,3.3,28,,
2018/8/13,17:00:00,3,���k��,1.7,19.6,95.9,0,0.1,3,���k��,2.7,19,,
2018/8/13,18:00:00,1,�k�k��,1.3,19.2,96.8,0,0.04,3,���k��,3,13,,
2018/8/13,19:00:00,6,�쓌,1,18.8,98.5,0,0,8,��,1.7,34,,
2018/8/13,20:00:00,4,��,1.2,18.7,99.3,0,0,3,���k��,1.8,58,,
2018/8/13,21:00:00,3,���k��,1.5,18.4,99.6,0,0,3,���k��,2.9,38,,
2018/8/13,22:00:00,16,�É�,0.1,18.3,99.8,0.5,0,3,���k��,2.3,29,,
2018/8/13,23:00:00,16,�É�,0,18.3,99.9,0,0,4,��,0.9,4,,
2018/8/13,0:00:00,14,�k��,0.7,18.3,100,0,0,14,�k��,1.2,56,,
2018/8/14,1:00:00,13,���k��,1,18.6,100,0,0,16,�k,3.2,29,,
2018/8/14,2:00:00,11,���쐼,0.9,18.4,100,0,0,9,��쐼,1.6,38,,
2018/8/14,3:00:00,16,�É�,0,18.5,100,0.5,0,10,�쐼,1.2,0,,
2018/8/14,4:00:00,8,��,1.6,18.3,100,0,0,8,��,2.9,59,,
2018/8/14,5:00:00,11,���쐼,1.9,18.4,100,0,0,9,��쐼,2.9,1,,
2018/8/14,6:00:00,11,���쐼,0.7,19.6,100,0,0.03,11,���쐼,2.1,4,,
2018/8/14,7:00:00,14,�k��,0.4,20.9,99.7,0,0.16,10,�쐼,1.9,31,,
2018/8/14,8:00:00,4,��,0.7,21.6,93.1,0,0.28,2,�k��,1.7,59,,
2018/8/14,9:00:00,9,��쐼,1.2,21.9,90.6,0,0.3,7,��쓌,3,35,,
2018/8/14,10:00:00,9,��쐼,0.5,22.9,88.2,0,0.36,10,�쐼,2.3,0,,
2018/8/14,11:00:00,7,��쓌,1.2,22.1,91.2,0,0.23,7,��쓌,3.1,5,,
2018/8/14,12:00:00,7,��쓌,1,22.3,89.9,0,0.16,7,��쓌,2.6,12,,
2018/8/14,13:00:00,8,��,1.2,21.5,94.5,0,0.12,6,�쓌,2.5,10,,
2018/8/14,14:00:00,5,���쓌,0.6,22.9,87.3,0,0.19,6,�쓌,1.9,16,,
2018/8/14,15:00:00,5,���쓌,0.5,22,89,0,0.19,6,�쓌,2.3,26,,
2018/8/14,16:00:00,4,��,1.3,20.8,96.1,0,0.08,3,���k��,1.8,57,,
2018/8/14,17:00:00,5,���쓌,1.8,19.7,98.1,2,0.04,3,���k��,2.7,21,,
2018/8/14,18:00:00,4,��,2.2,19,99,6.5,0.01,4,��,3.1,53,,
2018/8/14,19:00:00,3,���k��,0.9,18.7,99.4,1.5,0,4,��,2.9,18,,
2018/8/14,20:00:00,16,�É�,0.1,18.8,99.6,1,0,4,��,1.3,39,,
2018/8/14,21:00:00,16,�É�,0,18.8,99.7,0.5,0,16,�k,0.9,37,,
2018/8/14,22:00:00,2,�k��,0.5,18.8,99.8,0,0,3,���k��,0.9,54,,
2018/8/14,23:00:00,1,�k�k��,0.3,18.8,99.8,0.5,0,2,�k��,1.1,58,,
2018/8/14,0:00:00,1,�k�k��,0.6,18.8,99.8,0.5,0,2,�k��,1.1,46,,
2018/8/15,1:00:00,1,�k�k��,0.8,18.7,99.8,4,0,3,���k��,1.5,24,,
2018/8/15,2:00:00,3,���k��,1.6,18.5,99.9,5,0,3,���k��,3,35,,
2018/8/15,3:00:00,3,���k��,3.1,18.3,99.9,2,0,3,���k��,5.1,52,,
2018/8/15,4:00:00,2,�k��,1.6,18.3,99.7,1,0,2,�k��,4.1,4,,
2018/8/15,5:00:00,3,���k��,2.7,18,99.4,1.5,0,3,���k��,5,40,,
2018/8/15,6:00:00,1,�k�k��,1,18.2,99.4,0,0.01,3,���k��,3.4,0,,
2018/8/15,7:00:00,2,�k��,1,18.4,99.3,1,0.03,2,�k��,1.9,52,,
2018/8/15,8:00:00,3,���k��,3.7,18.6,98.9,1,0.12,3,���k��,6.4,56,,
2018/8/15,9:00:00,3,���k��,3.7,18,98.8,0,0.11,3,���k��,6.7,0,,
2018/8/15,10:00:00,4,��,3.6,17.9,99.1,1,0.11,5,���쓌,5.4,59,,
2018/8/15,11:00:00,3,���k��,3.4,17.6,99.2,1.5,0.07,5,���쓌,5.9,1,,
2018/8/15,12:00:00,2,�k��,2.5,18.2,98.8,6,0.13,1,�k�k��,5.4,4,,
2018/8/15,13:00:00,3,���k��,3.3,18.3,97,0,0.22,3,���k��,5.6,47,,
2018/8/15,14:00:00,3,���k��,2.5,18,97.7,0,0.14,4,��,4.6,11,,
2018/8/15,15:00:00,4,��,1.4,17.8,98.6,0,0.09,3,���k��,5.3,13,,
2018/8/15,16:00:00,4,��,2.3,17.5,99,0,0.05,5,���쓌,3.7,35,,
2018/8/15,17:00:00,5,���쓌,1.8,17.5,99.3,0.5,0.03,4,��,4.3,22,,
2018/8/15,18:00:00,5,���쓌,2.3,17.3,99.5,0.5,0.01,5,���쓌,3.6,45,,
2018/8/15,19:00:00,2,�k��,2.5,16.7,99.5,2.5,0,2,�k��,5.1,38,,
2018/8/15,20:00:00,3,���k��,1.9,16.7,99.7,3,0,3,���k��,3.9,58,,
2018/8/15,21:00:00,2,�k��,2.2,16.7,99.6,0.5,0,3,���k��,5.3,35,,
2018/8/15,22:00:00,2,�k��,1.1,16.7,99.1,0,0,2,�k��,4.6,50,,
2018/8/15,23:00:00,3,���k��,3.1,16.4,99,0.5,0,3,���k��,5.2,31,,
2018/8/15,0:00:00,2,�k��,2.9,16.1,98.8,0.5,0,3,���k��,6.9,20,,
2018/8/16,1:00:00,1,�k�k��,2.5,15.9,98.7,2,0,1,�k�k��,4.4,59,,
2018/8/16,2:00:00,2,�k��,1.6,15.6,99.2,3.5,0,2,�k��,4.9,59,,
2018/8/16,3:00:00,2,�k��,2.1,15.7,98.7,0,0,2,�k��,4.9,32,,
2018/8/16,4:00:00,2,�k��,2,15.7,98.8,0,0,1,�k�k��,4.8,20,,
2018/8/16,5:00:00,2,�k��,2.5,15.7,98.5,0,0,2,�k��,4.5,25,,
2018/8/16,6:00:00,2,�k��,2.5,15.6,99.2,2,0.01,2,�k��,4.6,8,,
2018/8/16,7:00:00,2,�k��,3.7,15.6,99.1,3,0.03,3,���k��,7.1,31,,
2018/8/16,8:00:00,3,���k��,3.9,15.4,99,1.5,0.05,2,�k��,6.8,51,,
2018/8/16,9:00:00,2,�k��,3,15.4,98.7,1,0.08,3,���k��,7.4,20,,
2018/8/16,10:00:00,2,�k��,3.9,15.4,98,0.5,0.12,3,���k��,6.9,31,,
2018/8/16,11:00:00,1,�k�k��,2.6,15.5,98,0.5,0.11,2,�k��,6.7,2,,
2018/8/16,12:00:00,2,�k��,2.1,15.7,98.8,1,0.09,3,���k��,4.7,15,,
2018/8/16,13:00:00,1,�k�k��,2.5,15.6,98.1,1,0.08,1,�k�k��,4.9,50,,
2018/8/16,14:00:00,1,�k�k��,2,15.4,97.8,2.5,0.11,3,���k��,6.4,33,,
2018/8/16,15:00:00,2,�k��,3.1,14.9,97.6,2.5,0.08,3,���k��,6.8,23,,
2018/8/16,16:00:00,2,�k��,2.8,14.6,97.1,1,0.06,2,�k��,7.1,14,,
2018/8/16,17:00:00,1,�k�k��,2.7,14.2,97.2,3,0.03,2,�k��,7.5,32,,
2018/8/16,18:00:00,16,�k,1.5,14.2,98.1,3.5,0.01,1,�k�k��,6.3,23,,
2018/8/16,19:00:00,16,�k,2.3,13.9,97,3.5,0,1,�k�k��,8,26,,
2018/8/16,20:00:00,15,�k�k��,1.9,13.8,99.1,7.5,0,15,�k�k��,4.5,54,,
2018/8/16,21:00:00,16,�k,1.8,13.1,97.5,3,0,1,�k�k��,3.5,58,,
2018/8/16,22:00:00,15,�k�k��,3.4,12.5,97.2,0.5,0,2,�k��,10.7,39,,
2018/8/16,23:00:00,14,�k��,2.8,12.5,95.2,0,0,14,�k��,7.1,20,,
2018/8/16,0:00:00,14,�k��,2.7,12.5,94.6,0,0,14,�k��,5.9,3,,
2018/8/17,1:00:00,14,�k��,3.2,12.7,91.9,0,0,14,�k��,7.4,55,,
2018/8/17,2:00:00,15,�k�k��,4,13.1,89.6,0,0,16,�k,8.1,55,,
2018/8/17,3:00:00,15,�k�k��,4.1,13.2,88,0,0,1,�k�k��,8.2,39,,